sat.trackr.live / text

‹ back to catalog

STARLINK-33708

NORAD 63405 · 2025-065G

PAYLOAD ACTIVE UNKNOWN

§ Identity

Operator
Country
US
Launch date
2025-03-31
Launch site
AFETR
Launch vehicle
Mass (kg)
RCS (m²)

Purposes: comms

External: N2YO · Heavens-Above · Gunter

§ Orbital elements

Epoch: 2026-05-24T18:01:19.956288Z

Period
94.26 min
Inclination
43.0036°
Eccentricity
0.0000235
Mean motion
15.27608476 rev/d
Perigee alt
482.8 km
Apogee alt
483.1 km
Semi-major
6,861.1 km
B*
8.4648e-4
RAAN
37.4269°
Arg perigee
325.6797°
Mean anomaly
34.4040°
Rev number
6,447

§ Raw data

STARLINK-337081 63405U 25065G   26144.75092542  .00023124  00000+0  84648-3 0  99912 63405  43.0036  37.4269 0000235 325.6797  34.4040 15.27608476 64478

JSON: /api/v1/satellites/63405 · /tle

For live sub-satellite position, see the globe view (requires WebGL).

§ Visibility from observer

Set your observer location to see the next 7 days of passes ≥ 10°. The values pass through the URL so the page stays shareable.

No JS? Fill the form by hand. The geolocation button needs JavaScript.